Simultaneous Nadir Overpasses (SNOs) Predictions

Prediction of SNOs between METOP-C and LANDSAT-8 Satellite Orbit:

Table of predicted SNOs for the next 14.0 days since TLE Epoch: 10/17/2020
Index Date (METOP-C) Time (METOP-C) Lat,Lon (METOP-C) SZA (METOP-C ) Date (LANDSAT-8) Time (LANDSAT-8) Lat,Lon (LANDSAT-8) SZA (LANDSAT-8 ) Distance(km) Time Diff (sec)
1 10/17/2020 08:58:02 81.08, 84.77 92.87 10/17/2020 08:58:18 81.09, 84.86 92.89 1.92 16
2 10/17/2020 09:48:42 -81.10,-107.21 87.03 10/17/2020 09:47:44 -81.10,-107.22 87.06 0.36 58
3 10/20/2020 04:32:26 81.09, 151.41 93.93 10/20/2020 04:32:33 81.09, 151.38 93.93 0.80 7
4 10/20/2020 05:23:06 -81.11, -40.54 85.97 10/20/2020 05:21:59 -81.11, -40.69 86.02 2.57 67
5 10/22/2020 23:16:12 -81.06, 49.71 85.19 10/22/2020 23:17:22 -81.06, 49.79 85.15 1.51 70
6 10/23/2020 00:06:49 81.09,-141.95 94.96 10/23/2020 00:06:47 81.09,-142.14 94.94 3.29 2
7 10/25/2020 18:50:36 -81.07, 116.33 84.18 10/25/2020 18:51:37 -81.07, 116.26 84.16 1.24 61
8 10/25/2020 19:41:14 81.09, -75.71 95.92 10/25/2020 19:41:02 81.09, -75.69 95.92 0.62 12
9 10/28/2020 14:25:01 -81.06,-177.44 83.26 10/28/2020 14:25:52 -81.07,-177.30 83.22 2.59 51
